| time (UTC) | temp F | wind direction | speed MPH | gust MPH | rain 1hr in | rain 24hr in | rain mn in | humidity % | barometer mb |
| 20260507062528 | 55 | 0 | 0.0 | 1.0 | 0.00 | 0.11 | 0.00 | 92 | 1006.3 |
| 20260507062027 | 55 | 0 | 0.0 | 1.0 | 0.00 | 0.11 | 0.00 | 92 | 1006.4 |
| 20260507061542 | 55 | 0 | 0.0 | 0.0 | 0.00 | 0.11 | 0.00 | 92 | 1006.4 |
| 20260507061025 | 55 | 0 | 0.0 | 0.0 | 0.00 | 0.11 | 0.00 | 92 | 1006.3 |
| 20260507060526 | 55 | 0 | 0.0 | 1.0 | 0.00 | 0.11 | 0.00 | 92 | 1006.4 |
| 20260507060040 | 55 | 0 | 0.0 | 2.0 | 0.00 | 0.11 | 0.00 | 92 | 1006.4 |
| 20260507055527 | 55 | 360 | 0.0 | 2.0 | 0.00 | 0.11 | 0.00 | 92 | 1006.5 |
| 20260507055027 | 55 | 0 | 0.0 | 2.0 | 0.00 | 0.11 | 0.00 | 92 | 1006.3 |
| 20260507054538 | 55 | 0 | 0.0 | 2.0 | 0.00 | 0.11 | 0.00 | 92 | 1006.9 |
| 20260507054027 | 55 | 360 | 0.0 | 2.0 | 0.00 | 0.11 | 0.00 | 92 | 1007.1 |
| 20260507053528 | 55 | 0 | 0.0 | 2.0 | 0.00 | 0.11 | 0.00 | 92 | 1006.9 |
| 20260507053037 | 55 | 296 | 0.0 | 2.0 | 0.00 | 0.11 | 0.00 | 92 | 1007.1 |
| 20260507052527 | 55 | 0 | 0.0 | 0.0 | 0.00 | 0.11 | 0.00 | 92 | 1007.1 |
| 20260507052027 | 55 | 0 | 0.0 | 0.0 | 0.00 | 0.11 | 0.00 | 92 | 1006.9 |
| 20260507051537 | 55 | 0 | 0.0 | 0.0 | 0.00 | 0.11 | 0.00 | 92 | 1007.2 |
| 20260507051027 | 55 | 0 | 0.0 | 0.0 | 0.00 | 0.11 | 0.00 | 92 | 1007.2 |
| 20260507050528 | 55 | 0 | 0.0 | 0.0 | 0.00 | 0.11 | 0.00 | 92 | 1007.3 |
| 20260507050044 | 55 | 0 | 0.0 | 0.0 | 0.00 | 0.11 | 0.00 | 92 | 1007.4 |
| 20260507045529 | 55 | 0 | 0.0 | 1.0 | 0.00 | 0.11 | 0.00 | 92 | 1007.3 |
| 20260507045028 | 55 | 0 | 0.0 | 1.0 | 0.00 | 0.11 | 0.00 | 92 | 1007.3 |
| 20260507044539 | 55 | 297 | 0.0 | 1.0 | 0.00 | 0.11 | 0.00 | 92 | 1007.2 |
| 20260507044024 | 55 | 296 | 0.0 | 3.0 | 0.00 | 0.11 | 0.00 | 92 | 1007.3 |
| 20260507043527 | 55 | 0 | 0.0 | 3.0 | 0.00 | 0.11 | 0.00 | 92 | 1007.3 |
| 20260507043048 | 55 | 297 | 0.0 | 3.0 | 0.00 | 0.11 | 0.00 | 92 | 1007.3 |
| 20260507042526 | 55 | 0 | 0.0 | 2.0 | 0.00 | 0.11 | 0.00 | 92 | 1007.3 |
| 20260507042025 | 55 | 0 | 0.0 | 1.0 | 0.00 | 0.11 | 0.00 | 92 | 1007.2 |
| 20260507041537 | 55 | 0 | 0.0 | 2.0 | 0.00 | 0.11 | 0.00 | 92 | 1007.2 |
| 20260507041027 | 55 | 186 | 0.0 | 2.0 | 0.00 | 0.11 | 0.00 | 92 | 1007.1 |
| 20260507040528 | 55 | 186 | 0.0 | 2.0 | 0.00 | 0.11 | 0.00 | 92 | 1007.3 |
| 20260507040039 | 55 | 0 | 0.0 | 2.0 | 0.00 | 0.11 | 0.00 | 92 | 1007.2 |
| 20260507035527 | 55 | 0 | 0.0 | 2.0 | 0.00 | 0.11 | 0.11 | 92 | 1007.5 |
| 20260507035027 | 55 | 0 | 0.0 | 2.0 | 0.00 | 0.11 | 0.11 | 92 | 1007.5 |
| 20260507034541 | 55 | 186 | 0.0 | 3.0 | 0.00 | 0.11 | 0.11 | 92 | 1007.3 |
| 20260507034027 | 55 | 290 | 0.0 | 3.0 | 0.00 | 0.11 | 0.11 | 92 | 1007.3 |
| 20260507033527 | 55 | 274 | 0.0 | 2.0 | 0.00 | 0.11 | 0.11 | 92 | 1007.4 |
| 20260507033040 | 55 | 0 | 0.0 | 2.0 | 0.00 | 0.11 | 0.11 | 92 | 1007.4 |
| 20260507032527 | 55 | 0 | 0.0 | 3.0 | 0.00 | 0.11 | 0.11 | 91 | 1007.4 |
| 20260507032025 | 55 | 274 | 0.0 | 3.0 | 0.00 | 0.11 | 0.11 | 92 | 1007.5 |
| 20260507031539 | 55 | 0 | 0.0 | 2.0 | 0.00 | 0.11 | 0.11 | 92 | 1007.6 |
| 20260507031026 | 55 | 271 | 0.0 | 2.0 | 0.00 | 0.11 | 0.11 | 92 | 1007.6 |
| 20260507030528 | 55 | 0 | 0.0 | 2.0 | 0.00 | 0.11 | 0.11 | 91 | 1007.6 |
| 20260507030038 | 55 | 197 | 0.0 | 4.0 | 0.00 | 0.11 | 0.11 | 91 | 1007.4 |
| 20260507025527 | 55 | 0 | 1.0 | 4.0 | 0.00 | 0.11 | 0.11 | 92 | 1007.3 |
| 20260507025030 | 55 | 194 | 0.0 | 6.0 | 0.00 | 0.11 | 0.11 | 91 | 1007.4 |
| 20260507024537 | 55 | 228 | 0.0 | 6.0 | 0.00 | 0.11 | 0.11 | 92 | 1007.4 |
| 20260507024028 | 55 | 0 | 0.0 | 6.0 | 0.00 | 0.11 | 0.11 | 92 | 1007.5 |
| 20260507023530 | 55 | 186 | 1.0 | 6.0 | 0.00 | 0.11 | 0.11 | 91 | 1007.6 |
| 20260507023052 | 55 | 200 | 2.0 | 6.0 | 0.00 | 0.11 | 0.11 | 91 | 1007.6 |
| 20260507022528 | 55 | 173 | 1.0 | 4.0 | 0.00 | 0.11 | 0.11 | 91 | 1007.6 |
| 20260507022030 | 55 | 315 | 0.0 | 3.0 | 0.00 | 0.11 | 0.11 | 91 | 1007.6 |
| 20260507021541 | 55 | 0 | 0.0 | 4.0 | 0.00 | 0.11 | 0.11 | 91 | 1007.8 |
| 20260507021028 | 55 | 166 | 0.0 | 4.0 | 0.00 | 0.11 | 0.11 | 91 | 1007.9 |
| 20260507020528 | 55 | 175 | 1.0 | 7.0 | 0.00 | 0.11 | 0.11 | 91 | 1007.9 |
| 20260507020048 | 55 | 239 | 1.0 | 7.0 | 0.00 | 0.11 | 0.11 | 91 | 1007.5 |
| 20260507015527 | 55 | 194 | 1.0 | 4.0 | 0.00 | 0.11 | 0.11 | 91 | 1007.4 |
| 20260507015026 | 55 | 0 | 0.0 | 4.0 | 0.00 | 0.11 | 0.11 | 91 | 1007.5 |
| 20260507014537 | 55 | 0 | 0.0 | 4.0 | 0.00 | 0.11 | 0.11 | 91 | 1007.5 |
| 20260507014028 | 55 | 188 | 0.0 | 4.0 | 0.00 | 0.11 | 0.11 | 91 | 1007.7 |
| 20260507013526 | 55 | 236 | 0.0 | 4.0 | 0.00 | 0.11 | 0.11 | 91 | 1007.8 |
| 20260507013038 | 55 | 0 | 0.0 | 4.0 | 0.00 | 0.11 | 0.11 | 91 | 1008.0 |
| 20260507012529 | 55 | 206 | 0.0 | 3.0 | 0.00 | 0.11 | 0.11 | 91 | 1008.1 |
| 20260507012029 | 55 | 0 | 0.0 | 4.0 | 0.00 | 0.11 | 0.11 | 91 | 1007.9 |
| 20260507011545 | 55 | 188 | 1.0 | 4.0 | 0.00 | 0.11 | 0.11 | 91 | 1008.0 |
| 20260507011027 | 55 | 148 | 0.0 | 7.0 | 0.00 | 0.11 | 0.11 | 91 | 1008.1 |
| 20260507010527 | 55 | 227 | 1.0 | 7.0 | 0.00 | 0.11 | 0.11 | 91 | 1008.2 |
| 20260507010038 | 55 | 0 | 0.0 | 4.0 | 0.00 | 0.11 | 0.11 | 91 | 1008.2 |
| 20260507005527 | 55 | 311 | 1.0 | 7.0 | 0.00 | 0.11 | 0.11 | 91 | 1008.3 |
| 20260507005027 | 55 | 0 | 0.0 | 7.0 | 0.00 | 0.11 | 0.11 | 91 | 1008.2 |
| 20260507004541 | 55 | 142 | 0.0 | 8.0 | 0.00 | 0.11 | 0.11 | 91 | 1008.2 |
| 20260507004026 | 55 | 192 | 1.0 | 9.0 | 0.00 | 0.11 | 0.11 | 91 | 1008.3 |
| 20260507003528 | 55 | 246 | 2.0 | 9.0 | 0.00 | 0.11 | 0.11 | 91 | 1008.2 |
| 20260507003037 | 55 | 277 | 0.0 | 5.0 | 0.00 | 0.11 | 0.11 | 91 | 1008.2 |
| 20260507002528 | 55 | 0 | 0.0 | 5.0 | 0.00 | 0.11 | 0.11 | 91 | 1007.9 |
| 20260507002028 | 55 | 0 | 2.0 | 6.0 | 0.00 | 0.11 | 0.11 | 91 | 1007.8 |
| 20260507001604 | 55 | 187 | 0.0 | 7.0 | 0.00 | 0.11 | 0.11 | 91 | 1007.9 |
| 20260507001031 | 55 | 194 | 3.0 | 7.0 | 0.00 | 0.11 | 0.11 | 91 | 1007.8 |
| 20260507000527 | 55 | 0 | 1.0 | 5.0 | 0.00 | 0.11 | 0.11 | 91 | 1007.8 |
| 20260507000042 | 55 | 169 | 0.0 | 7.0 | 0.00 | 0.11 | 0.11 | 91 | 1007.7 |
| 20260506235530 | 55 | 53 | 1.0 | 7.0 | 0.00 | 0.11 | 0.11 | 91 | 1007.9 |
| 20260506235028 | 55 | 286 | 2.0 | 7.0 | 0.00 | 0.11 | 0.11 | 91 | 1008.0 |
| 20260506234541 | 55 | 162 | 1.0 | 6.0 | 0.00 | 0.11 | 0.11 | 91 | 1008.0 |
| 20260506234028 | 55 | 216 | 2.0 | 8.0 | 0.01 | 0.11 | 0.11 | 91 | 1008.0 |
| 20260506233522 | 55 | 148 | 3.0 | 8.0 | 0.01 | 0.11 | 0.11 | 91 | 1007.9 |
| 20260506233040 | 55 | 191 | 2.0 | 6.0 | 0.01 | 0.11 | 0.11 | 91 | 1007.8 |
| 20260506232522 | 55 | 210 | 1.0 | 5.0 | 0.01 | 0.11 | 0.11 | 91 | 1007.8 |
| 20260506232022 | 55 | 204 | 1.0 | 7.0 | 0.01 | 0.11 | 0.11 | 91 | 1007.7 |
| 20260506231540 | 55 | 213 | 2.0 | 7.0 | 0.02 | 0.11 | 0.11 | 91 | 1007.8 |
| 20260506231027 | 55 | 191 | 1.0 | 11.0 | 0.02 | 0.11 | 0.11 | 91 | 1007.8 |
| 20260506230526 | 55 | 180 | 1.0 | 11.0 | 0.03 | 0.11 | 0.11 | 91 | 1007.9 |
| 20260506230052 | 55 | 232 | 2.0 | 9.0 | 0.03 | 0.11 | 0.11 | 91 | 1007.8 |
| 20260506225525 | 55 | 156 | 3.0 | 9.0 | 0.03 | 0.11 | 0.11 | 91 | 1007.8 |
| 20260506225025 | 55 | 188 | 3.0 | 9.0 | 0.04 | 0.11 | 0.11 | 91 | 1007.8 |
| 20260506224537 | 55 | 236 | 1.0 | 9.0 | 0.04 | 0.11 | 0.11 | 90 | 1007.8 |
| 20260506224025 | 55 | 350 | 3.0 | 9.0 | 0.04 | 0.10 | 0.10 | 90 | 1007.7 |
| 20260506223525 | 55 | 177 | 2.0 | 8.0 | 0.04 | 0.10 | 0.10 | 90 | 1007.7 |
| 20260506223035 | 55 | 32 | 1.0 | 8.0 | 0.05 | 0.10 | 0.10 | 90 | 1007.6 |
| 20260506222529 | 55 | 219 | 1.0 | 8.0 | 0.05 | 0.10 | 0.10 | 90 | 1007.7 |
| 20260506222025 | 55 | 221 | 1.0 | 7.0 | 0.05 | 0.10 | 0.10 | 90 | 1007.7 |
| 20260506221551 | 55 | 254 | 1.0 | 7.0 | 0.04 | 0.09 | 0.09 | 90 | 1007.7 |
| 20260506221026 | 55 | 182 | 2.0 | 7.0 | 0.04 | 0.09 | 0.09 | 90 | 1007.7 |
| 20260506220524 | 55 | 228 | 1.0 | 6.0 | 0.04 | 0.08 | 0.08 | 90 | 1007.8 |
| 20260506220040 | 55 | 259 | 1.0 | 6.0 | 0.04 | 0.08 | 0.08 | 90 | 1007.9 |
| 20260506215522 | 55 | 239 | 1.0 | 6.0 | 0.04 | 0.08 | 0.08 | 90 | 1008.0 |
| 20260506215022 | 55 | 242 | 2.0 | 8.0 | 0.03 | 0.07 | 0.07 | 90 | 1008.0 |
| 20260506214538 | 55 | 204 | 1.0 | 8.0 | 0.03 | 0.07 | 0.07 | 89 | 1008.1 |
| 20260506214027 | 55 | 38 | 1.0 | 6.0 | 0.02 | 0.06 | 0.06 | 89 | 1008.1 |
| 20260506213523 | 56 | 187 | 1.0 | 12.0 | 0.02 | 0.06 | 0.06 | 89 | 1008.2 |
| 20260506213037 | 56 | 196 | 2.0 | 12.0 | 0.01 | 0.05 | 0.05 | 89 | 1008.3 |
| 20260506212526 | 56 | 248 | 1.0 | 5.0 | 0.02 | 0.05 | 0.05 | 89 | 1008.3 |
| 20260506212026 | 56 | 245 | 2.0 | 7.0 | 0.02 | 0.05 | 0.05 | 89 | 1008.4 |
| 20260506211537 | 56 | 280 | 1.0 | 7.0 | 0.02 | 0.05 | 0.05 | 89 | 1008.4 |
| 20260506211027 | 56 | 158 | 2.0 | 8.0 | 0.03 | 0.05 | 0.05 | 89 | 1008.4 |
| 20260506210529 | 56 | 360 | 2.0 | 8.0 | 0.02 | 0.04 | 0.04 | 89 | 1008.7 |
| 20260506210049 | 56 | 360 | 2.0 | 6.0 | 0.02 | 0.04 | 0.04 | 89 | 1008.5 |
| 20260506205523 | 56 | 360 | 2.0 | 9.0 | 0.02 | 0.04 | 0.04 | 89 | 1008.6 |
| 20260506205025 | 56 | 360 | 2.0 | 9.0 | 0.02 | 0.04 | 0.04 | 88 | 1008.6 |
| 20260506204545 | 56 | 0 | 1.0 | 9.0 | 0.02 | 0.04 | 0.04 | 88 | 1008.7 |
| 20260506204022 | 56 | 360 | 2.0 | 9.0 | 0.02 | 0.04 | 0.04 | 88 | 1008.6 |
| 20260506203526 | 56 | 360 | 2.0 | 9.0 | 0.02 | 0.04 | 0.04 | 88 | 1008.8 |
| 20260506203042 | 57 | 360 | 2.0 | 9.0 | 0.02 | 0.04 | 0.04 | 88 | 1009.0 |
| 20260506202532 | 57 | 360 | 2.0 | 9.0 | 0.01 | 0.03 | 0.03 | 88 | 1008.8 |
| 20260506202028 | 57 | 360 | 1.0 | 8.0 | 0.02 | 0.03 | 0.03 | 88 | 1009.0 |
| 20260506201538 | 57 | 170 | 2.0 | 8.0 | 0.03 | 0.03 | 0.03 | 87 | 1009.0 |
| 20260506201027 | 57 | 166 | 3.0 | 10.0 | 0.02 | 0.02 | 0.02 | 87 | 1009.0 |
| 20260506200527 | 57 | 355 | 3.0 | 11.0 | 0.02 | 0.02 | 0.02 | 87 | 1009.1 |
| 20260506200039 | 57 | 234 | 3.0 | 11.0 | 0.02 | 0.02 | 0.02 | 87 | 1009.2 |
| 20260506195527 | 57 | 221 | 3.0 | 10.0 | 0.02 | 0.02 | 0.02 | 87 | 1009.2 |
| 20260506195027 | 58 | 202 | 3.0 | 10.0 | 0.02 | 0.02 | 0.02 | 86 | 1009.3 |
| 20260506194542 | 58 | 273 | 2.0 | 10.0 | 0.02 | 0.02 | 0.02 | 87 | 1009.4 |
| 20260506194029 | 58 | 287 | 1.0 | 5.0 | 0.02 | 0.02 | 0.02 | 87 | 1009.3 |
| 20260506193529 | 58 | 164 | 2.0 | 5.0 | 0.02 | 0.02 | 0.02 | 86 | 1009.1 |
| 20260506193044 | 58 | 203 | 1.0 | 9.0 | 0.02 | 0.02 | 0.02 | 85 | 1009.3 |
| 20260506192528 | 58 | 360 | 1.0 | 9.0 | 0.01 | 0.01 | 0.01 | 84 | 1009.3 |
| 20260506192028 | 59 | 250 | 2.0 | 13.0 | 0.01 | 0.01 | 0.01 | 83 | 1009.4 |
| 20260506191539 | 59 | 204 | 3.0 | 13.0 | 0.00 | 0.00 | 0.00 | 82 | 1009.4 |
| 20260506191028 | 60 | 182 | 4.0 | 10.0 | 0.00 | 0.00 | 0.00 | 81 | 1009.3 |
| 20260506190529 | 60 | 360 | 2.0 | 9.0 | 0.00 | 0.00 | 0.00 | 79 | 1009.4 |
| 20260506190038 | 61 | 360 | 3.0 | 11.0 | 0.00 | 0.00 | 0.00 | 77 | 1009.5 |
| 20260506185527 | 62 | 223 | 3.0 | 16.0 | 0.00 | 0.00 | 0.00 | 75 | 1009.6 |
| 20260506185028 | 62 | 336 | 3.0 | 16.0 | 0.00 | 0.00 | 0.00 | 74 | 1009.5 |
| 20260506184547 | 62 | 211 | 3.0 | 11.0 | 0.00 | 0.00 | 0.00 | 74 | 1009.6 |
| 20260506184028 | 62 | 237 | 3.0 | 11.0 | 0.00 | 0.00 | 0.00 | 74 | 1009.6 |
| 20260506183527 | 62 | 224 | 2.0 | 10.0 | 0.00 | 0.00 | 0.00 | 74 | 1009.6 |
| 20260506183044 | 62 | 244 | 2.0 | 9.0 | 0.00 | 0.00 | 0.00 | 74 | 1009.7 |
| 20260506182527 | 63 | 163 | 3.0 | 9.0 | 0.00 | 0.00 | 0.00 | 73 | 1009.7 |
| 20260506182029 | 63 | 236 | 4.0 | 14.0 | 0.00 | 0.00 | 0.00 | 73 | 1009.8 |
| 20260506181542 | 63 | 195 | 2.0 | 14.0 | 0.00 | 0.00 | 0.00 | 73 | 1010.0 |
| 20260506181030 | 63 | 285 | 3.0 | 14.0 | 0.00 | 0.00 | 0.00 | 77 | 1010.2 |
| 20260506180531 | 63 | 243 | 2.0 | 12.0 | 0.00 | 0.00 | 0.00 | 71 | 1009.9 |
| 20260506180037 | 64 | 122 | 4.0 | 12.0 | 0.00 | 0.00 | 0.00 | 71 | 1010.0 |
| 20260506175527 | 64 | 153 | 1.0 | 11.0 | 0.00 | 0.00 | 0.00 | 71 | 1010.0 |
| 20260506175027 | 64 | 29 | 3.0 | 11.0 | 0.00 | 0.00 | 0.00 | 70 | 1010.0 |
| 20260506174538 | 65 | 186 | 3.0 | 7.0 | 0.00 | 0.00 | 0.00 | 69 | 1010.3 |
| 20260506174027 | 65 | 144 | 2.0 | 6.0 | 0.00 | 0.00 | 0.00 | 70 | 1010.2 |
| 20260506173527 | 65 | 33 | 3.0 | 9.0 | 0.00 | 0.00 | 0.00 | 69 | 1010.2 |
| 20260506173046 | 66 | 198 | 3.0 | 9.0 | 0.00 | 0.00 | 0.00 | 69 | 1010.4 |
| 20260506172527 | 66 | 173 | 3.0 | 8.0 | 0.00 | 0.00 | 0.00 | 69 | 1010.7 |
| 20260506172027 | 66 | 277 | 3.0 | 8.0 | 0.00 | 0.00 | 0.00 | 68 | 1010.8 |
| 20260506171541 | 67 | 179 | 3.0 | 12.0 | 0.00 | 0.00 | 0.00 | 68 | 1010.8 |
| 20260506171030 | 67 | 298 | 1.0 | 12.0 | 0.00 | 0.00 | 0.00 | 68 | 1010.6 |
| 20260506170527 | 66 | 276 | 4.0 | 12.0 | 0.00 | 0.00 | 0.00 | 68 | 1010.6 |
| 20260506170045 | 66 | 153 | 3.0 | 10.0 | 0.00 | 0.00 | 0.00 | 69 | 1010.5 |
| 20260506165529 | 66 | 155 | 4.0 | 11.0 | 0.00 | 0.00 | 0.00 | 68 | 1010.6 |
| 20260506165030 | 67 | 146 | 4.0 | 11.0 | 0.00 | 0.00 | 0.00 | 69 | 1010.5 |
| 20260506164551 | 67 | 250 | 4.0 | 11.0 | 0.00 | 0.00 | 0.00 | 69 | 1010.8 |
| 20260506164031 | 66 | 209 | 4.0 | 11.0 | 0.00 | 0.00 | 0.00 | 70 | 1011.0 |
| 20260506163527 | 65 | 213 | 3.0 | 11.0 | 0.00 | 0.00 | 0.00 | 70 | 1011.1 |
| 20260506163041 | 65 | 199 | 2.0 | 10.0 | 0.00 | 0.00 | 0.00 | 71 | 1011.2 |
| 20260506162529 | 65 | 34 | 2.0 | 11.0 | 0.00 | 0.00 | 0.00 | 71 | 1011.1 |
| 20260506162027 | 65 | 173 | 3.0 | 11.0 | 0.00 | 0.00 | 0.00 | 69 | 1011.2 |
| 20260506161540 | 65 | 155 | 4.0 | 11.0 | 0.00 | 0.00 | 0.00 | 69 | 1011.3 |
| 20260506161026 | 65 | 74 | 1.0 | 9.0 | 0.00 | 0.00 | 0.00 | 69 | 1011.2 |
| 20260506160528 | 66 | 153 | 3.0 | 9.0 | 0.00 | 0.00 | 0.00 | 68 | 1011.3 |
| 20260506160045 | 66 | 161 | 2.0 | 10.0 | 0.00 | 0.00 | 0.00 | 67 | 1011.5 |
| 20260506155527 | 67 | 213 | 3.0 | 18.0 | 0.00 | 0.00 | 0.00 | 66 | 1011.5 |
| 20260506155027 | 67 | 0 | 4.0 | 18.0 | 0.00 | 0.00 | 0.00 | 66 | 1011.4 |
| 20260506154543 | 68 | 215 | 4.0 | 10.0 | 0.00 | 0.00 | 0.00 | 64 | 1011.5 |
| 20260506154027 | 68 | 242 | 3.0 | 10.0 | 0.00 | 0.00 | 0.00 | 64 | 1011.5 |
| 20260506153527 | 68 | 222 | 4.0 | 15.0 | 0.00 | 0.00 | 0.00 | 65 | 1011.4 |
| 20260506153037 | 68 | 240 | 3.0 | 16.0 | 0.00 | 0.00 | 0.00 | 65 | 1011.6 |
| 20260506152530 | 68 | 333 | 3.0 | 16.0 | 0.00 | 0.00 | 0.00 | 66 | 1011.3 |
| 20260506152025 | 68 | 131 | 1.0 | 15.0 | 0.00 | 0.00 | 0.00 | 67 | 1011.5 |
| 20260506151544 | 67 | 66 | 3.0 | 11.0 | 0.00 | 0.00 | 0.00 | 67 | 1011.5 |
| 20260506151027 | 67 | 190 | 2.0 | 11.0 | 0.00 | 0.00 | 0.00 | 67 | 1011.6 |
| 20260506150527 | 67 | 180 | 3.0 | 11.0 | 0.00 | 0.00 | 0.00 | 66 | 1011.7 |
| 20260506150049 | 68 | 193 | 3.0 | 8.0 | 0.00 | 0.00 | 0.00 | 66 | 1011.7 |
| 20260506145526 | 68 | 212 | 2.0 | 16.0 | 0.00 | 0.00 | 0.00 | 67 | 1011.6 |
| 20260506145026 | 67 | 227 | 2.0 | 16.0 | 0.00 | 0.00 | 0.00 | 67 | 1011.8 |
| 20260506144538 | 67 | 11 | 3.0 | 12.0 | 0.00 | 0.00 | 0.00 | 72 | 1011.7 |
| 20260506144028 | 67 | 189 | 3.0 | 12.0 | 0.00 | 0.00 | 0.00 | 67 | 1011.4 |
| 20260506143531 | 67 | 0 | 1.0 | 10.0 | 0.00 | 0.00 | 0.00 | 67 | 1011.5 |
| 20260506143040 | 67 | 243 | 2.0 | 14.0 | 0.00 | 0.00 | 0.00 | 66 | 1011.6 |
| 20260506142526 | 67 | 302 | 4.0 | 14.0 | 0.00 | 0.00 | 0.00 | 68 | 1011.5 |
| 20260506142025 | 66 | 183 | 4.0 | 10.0 | 0.00 | 0.00 | 0.00 | 69 | 1011.8 |
| 20260506141542 | 66 | 200 | 2.0 | 8.0 | 0.00 | 0.00 | 0.00 | 69 | 1011.7 |
| 20260506141028 | 66 | 180 | 2.0 | 8.0 | 0.00 | 0.00 | 0.00 | 69 | 1011.6 |
| 20260506140525 | 66 | 238 | 2.0 | 7.0 | 0.00 | 0.00 | 0.00 | 69 | 1011.5 |
| 20260506140037 | 66 | 213 | 2.0 | 11.0 | 0.00 | 0.00 | 0.00 | 69 | 1011.4 |
| 20260506135526 | 66 | 290 | 3.0 | 11.0 | 0.00 | 0.00 | 0.00 | 69 | 1011.2 |
| 20260506135028 | 66 | 135 | 3.0 | 17.0 | 0.00 | 0.00 | 0.00 | 68 | 1011.3 |
| 20260506134541 | 66 | 95 | 4.0 | 17.0 | 0.00 | 0.00 | 0.00 | 69 | 1011.6 |
| 20260506134025 | 66 | 103 | 2.0 | 12.0 | 0.00 | 0.00 | 0.00 | 68 | 1011.5 |
| 20260506133526 | 66 | 161 | 3.0 | 12.0 | 0.00 | 0.00 | 0.00 | 69 | 1011.5 |
| 20260506133050 | 66 | 230 | 3.0 | 9.0 | 0.00 | 0.00 | 0.00 | 70 | 1011.7 |
| 20260506132530 | 65 | 79 | 2.0 | 10.0 | 0.00 | 0.00 | 0.00 | 70 | 1011.6 |
| 20260506132025 | 65 | 221 | 3.0 | 10.0 | 0.00 | 0.00 | 0.00 | 72 | 1011.8 |
| 20260506131538 | 64 | 286 | 4.0 | 10.0 | 0.00 | 0.00 | 0.00 | 71 | 1011.7 |
| 20260506131024 | 64 | 219 | 3.0 | 8.0 | 0.00 | 0.00 | 0.00 | 71 | 1011.7 |
| 20260506130528 | 64 | 200 | 2.0 | 8.0 | 0.00 | 0.00 | 0.00 | 79 | 1011.8 |
| 20260506130037 | 63 | 179 | 2.0 | 8.0 | 0.00 | 0.00 | 0.00 | 73 | 1011.7 |
| 20260506125526 | 63 | 256 | 3.0 | 8.0 | 0.00 | 0.00 | 0.00 | 74 | 1011.7 |
| 20260506125023 | 63 | 202 | 1.0 | 9.0 | 0.00 | 0.00 | 0.00 | 74 | 1011.8 |
| 20260506124537 | 63 | 205 | 2.0 | 9.0 | 0.00 | 0.00 | 0.00 | 75 | 1011.8 |
| 20260506124025 | 62 | 144 | 3.0 | 9.0 | 0.00 | 0.00 | 0.00 | 75 | 1011.7 |
| 20260506123526 | 62 | 204 | 2.0 | 8.0 | 0.00 | 0.00 | 0.00 | 75 | 1011.6 |
| 20260506123037 | 62 | 191 | 2.0 | 8.0 | 0.00 | 0.00 | 0.00 | 75 | 1011.7 |
| 20260506122526 | 62 | 151 | 3.0 | 8.0 | 0.00 | 0.00 | 0.00 | 76 | 1011.6 |
| 20260506122025 | 62 | 32 | 2.0 | 7.0 | 0.00 | 0.00 | 0.00 | 77 | 1011.7 |
| 20260506121545 | 61 | 234 | 3.0 | 7.0 | 0.00 | 0.00 | 0.00 | 77 | 1011.8 |
| 20260506121026 | 61 | 240 | 2.0 | 7.0 | 0.00 | 0.00 | 0.00 | 78 | 1011.9 |
| 20260506120527 | 60 | 54 | 2.0 | 12.0 | 0.00 | 0.00 | 0.00 | 79 | 1011.9 |
| 20260506120056 | 60 | 84 | 1.0 | 12.0 | 0.00 | 0.00 | 0.00 | 80 | 1012.0 |
| 20260506115527 | 60 | 234 | 5.0 | 12.0 | 0.00 | 0.00 | 0.00 | 80 | 1012.0 |
| 20260506115026 | 60 | 0 | 3.0 | 8.0 | 0.00 | 0.00 | 0.00 | 80 | 1012.0 |
| 20260506114537 | 59 | 28 | 2.0 | 8.0 | 0.00 | 0.00 | 0.00 | 81 | 1012.0 |
| 20260506114026 | 59 | 190 | 2.0 | 9.0 | 0.00 | 0.00 | 0.00 | 82 | 1012.1 |
| 20260506113526 | 59 | 91 | 2.0 | 9.0 | 0.00 | 0.00 | 0.00 | 82 | 1012.2 |
| 20260506113037 | 58 | 246 | 2.0 | 9.0 | 0.00 | 0.00 | 0.00 | 82 | 1012.3 |
| 20260506112528 | 58 | 237 | 2.0 | 8.0 | 0.00 | 0.00 | 0.00 | 83 | 1012.2 |
| 20260506112026 | 58 | 146 | 1.0 | 8.0 | 0.00 | 0.00 | 0.00 | 83 | 1012.3 |
| 20260506111544 | 58 | 28 | 1.0 | 6.0 | 0.00 | 0.00 | 0.00 | 84 | 1012.3 |
| 20260506111030 | 57 | 222 | 1.0 | 6.0 | 0.00 | 0.00 | 0.00 | 84 | 1012.3 |
| 20260506110528 | 57 | 360 | 2.0 | 5.0 | 0.00 | 0.00 | 0.00 | 84 | 1012.3 |
| 20260506110048 | 57 | 155 | 2.0 | 11.0 | 0.00 | 0.00 | 0.00 | 83 | 1012.2 |
| 20260506105529 | 57 | 205 | 1.0 | 11.0 | 0.00 | 0.00 | 0.00 | 83 | 1012.2 |
| 20260506105026 | 57 | 272 | 2.0 | 11.0 | 0.00 | 0.00 | 0.00 | 83 | 1012.0 |
| 20260506104553 | 57 | 0 | 1.0 | 6.0 | 0.00 | 0.00 | 0.00 | 84 | 1012.0 |
| 20260506104025 | 57 | 360 | 1.0 | 6.0 | 0.00 | 0.00 | 0.00 | 84 | 1012.0 |
| 20260506103524 | 57 | 360 | 2.0 | 6.0 | 0.00 | 0.00 | 0.00 | 84 | 1011.9 |
| 20260506103044 | 57 | 360 | 1.0 | 8.0 | 0.00 | 0.00 | 0.00 | 84 | 1012.0 |
| 20260506102529 | 57 | 0 | 2.0 | 8.0 | 0.00 | 0.00 | 0.00 | 84 | 1012.0 |
| 20260506102026 | 57 | 360 | 1.0 | 6.0 | 0.00 | 0.00 | 0.00 | 84 | 1012.0 |
| 20260506101539 | 57 | 360 | 3.0 | 6.0 | 0.00 | 0.00 | 0.00 | 85 | 1011.8 |
| 20260506101026 | 57 | 360 | 2.0 | 9.0 | 0.00 | 0.00 | 0.00 | 85 | 1012.0 |
| 20260506100526 | 57 | 360 | 2.0 | 9.0 | 0.00 | 0.00 | 0.00 | 84 | 1011.9 |
| 20260506100037 | 57 | 0 | 2.0 | 10.0 | 0.00 | 0.00 | 0.00 | 85 | 1011.9 |
| 20260506095527 | 57 | 360 | 1.0 | 10.0 | 0.00 | 0.00 | 0.00 | 84 | 1011.7 |
| 20260506095029 | 57 | 177 | 2.0 | 10.0 | 0.00 | 0.00 | 0.00 | 85 | 1011.8 |
| 20260506094536 | 57 | 167 | 2.0 | 9.0 | 0.00 | 0.00 | 0.00 | 84 | 1011.7 |
| 20260506094025 | 57 | 236 | 1.0 | 9.0 | 0.00 | 0.00 | 0.00 | 85 | 1011.7 |
| 20260506093525 | 57 | 360 | 3.0 | 9.0 | 0.00 | 0.00 | 0.00 | 84 | 1011.6 |
| 20260506093040 | 57 | 219 | 3.0 | 8.0 | 0.00 | 0.00 | 0.00 | 85 | 1011.8 |
| 20260506092525 | 57 | 112 | 2.0 | 9.0 | 0.00 | 0.00 | 0.00 | 85 | 1011.8 |
| 20260506092026 | 57 | 360 | 2.0 | 9.0 | 0.00 | 0.00 | 0.00 | 85 | 1011.9 |
| 20260506091538 | 57 | 360 | 0.0 | 12.0 | 0.00 | 0.00 | 0.00 | 85 | 1012.0 |
| 20260506091025 | 57 | 360 | 2.0 | 12.0 | 0.00 | 0.00 | 0.00 | 85 | 1011.9 |
| 20260506090525 | 57 | 360 | 2.0 | 9.0 | 0.00 | 0.00 | 0.00 | 84 | 1011.9 |
| 20260506090040 | 57 | 183 | 3.0 | 9.0 | 0.00 | 0.00 | 0.00 | 84 | 1011.9 |
| 20260506085526 | 57 | 209 | 2.0 | 9.0 | 0.00 | 0.00 | 0.00 | 84 | 1012.0 |
| 20260506085025 | 57 | 83 | 3.0 | 9.0 | 0.00 | 0.00 | 0.00 | 84 | 1012.0 |
| 20260506084610 | 57 | 196 | 2.0 | 9.0 | 0.00 | 0.00 | 0.00 | 84 | 1012.0 |
| 20260506084025 | 57 | 279 | 1.0 | 11.0 | 0.00 | 0.00 | 0.00 | 84 | 1012.1 |
| 20260506083526 | 57 | 169 | 2.0 | 11.0 | 0.00 | 0.00 | 0.00 | 84 | 1012.1 |
| 20260506083039 | 57 | 177 | 3.0 | 10.0 | 0.00 | 0.00 | 0.00 | 84 | 1012.1 |
| 20260506082526 | 57 | 250 | 2.0 | 7.0 | 0.00 | 0.00 | 0.00 | 84 | 1012.1 |
| 20260506082026 | 57 | 29 | 3.0 | 7.0 | 0.00 | 0.00 | 0.00 | 83 | 1012.1 |
| 20260506081552 | 57 | 213 | 2.0 | 7.0 | 0.00 | 0.00 | 0.00 | 83 | 1012.3 |
| 20260506081029 | 57 | 238 | 1.0 | 8.0 | 0.00 | 0.00 | 0.00 | 83 | 1012.2 |
| 20260506080528 | 57 | 186 | 2.0 | 8.0 | 0.00 | 0.00 | 0.00 | 83 | 1012.2 |
| 20260506073526 | 58 | 193 | 3.0 | 10.0 | 0.00 | 0.00 | 0.00 | 82 | 1012.2 |
| 20260506073038 | 58 | 172 | 3.0 | 16.0 | 0.00 | 0.00 | 0.00 | 82 | 1012.2 |
| 20260506072525 | 58 | 95 | 2.0 | 16.0 | 0.00 | 0.00 | 0.00 | 82 | 1012.1 |
| 20260506072027 | 58 | 233 | 3.0 | 10.0 | 0.00 | 0.00 | 0.00 | 82 | 1012.1 |
| 20260506071544 | 58 | 300 | 2.0 | 9.0 | 0.00 | 0.00 | 0.00 | 82 | 1012.0 |
| 20260506071025 | 58 | 252 | 2.0 | 8.0 | 0.00 | 0.00 | 0.00 | 82 | 1012.2 |
| 20260506070526 | 58 | 209 | 2.0 | 6.0 | 0.00 | 0.00 | 0.00 | 82 | 1012.1 |